Time,TemperatureF,DewpointF,PressureIn,WindDirection,WindDirectionDegrees,WindSpeedMPH,WindSpeedGustMPH,Humidity,HourlyPrecipIn,Conditions,Clouds,dailyrainin,SolarRadiationWatts/m^2,SoftwareType,DateUTC
2013-06-02 00:01:00,61.0,6.0,-100.00,ESE,121,3.0,6.0,11,0.00,,,0.00,1.000000,,2013-06-02 06:01:00,
2013-06-02 00:12:00,61.0,6.0,-100.00,ESE,121,3.0,6.0,11,0.00,,,0.00,1.000000,,2013-06-02 06:12:00,
2013-06-02 00:32:00,59.0,6.0,-100.00,ESE,114,5.0,6.0,12,0.00,,,0.00,1.000000,,2013-06-02 06:32:00,
2013-06-02 00:42:00,59.0,6.0,-100.00,ESE,114,5.0,6.0,12,0.00,,,0.00,1.000000,,2013-06-02 06:42:00,
2013-06-02 00:52:00,59.0,6.0,-100.00,ESE,114,5.0,6.0,12,0.00,,,0.00,1.000000,,2013-06-02 06:52:00,
2013-06-02 01:01:00,59.0,6.0,-100.00,ESE,114,5.0,6.0,12,0.00,,,0.00,1.000000,,2013-06-02 07:01:00,
2013-06-02 01:11:00,59.0,6.0,-100.00,ESE,114,5.0,6.0,12,0.00,,,0.00,1.000000,,2013-06-02 07:11:00,
2013-06-02 01:32:00,57.0,8.0,-100.00,ESE,112,5.0,6.0,14,0.00,,,0.00,1.000000,,2013-06-02 07:32:00,
2013-06-02 01:42:00,57.0,8.0,-100.00,ESE,112,5.0,6.0,14,0.00,,,0.00,1.000000,,2013-06-02 07:42:00,
2013-06-02 01:52:00,57.0,8.0,-100.00,ESE,112,5.0,6.0,14,0.00,,,0.00,1.000000,,2013-06-02 07:52:00,
2013-06-02 02:01:00,57.0,8.0,-100.00,ESE,112,5.0,6.0,14,0.00,,,0.00,1.000000,,2013-06-02 08:01:00,
2013-06-02 02:11:00,57.0,8.0,-100.00,ESE,112,5.0,6.0,14,0.00,,,0.00,1.000000,,2013-06-02 08:11:00,
2013-06-02 02:32:00,59.0,8.0,-100.00,ESE,104,0.0,5.0,13,0.00,,,0.00,1.000000,,2013-06-02 08:32:00,
2013-06-02 02:42:00,59.0,8.0,-100.00,ESE,104,0.0,5.0,13,0.00,,,0.00,1.000000,,2013-06-02 08:42:00,
2013-06-02 03:33:00,54.0,10.0,-100.00,ESE,116,7.0,13.0,17,-99.99,,,0.00,1.000000,,2013-06-02 09:33:00,
2013-06-02 03:43:00,54.0,10.0,-100.00,ESE,116,7.0,13.0,17,-99.99,,,0.00,1.000000,,2013-06-02 09:43:00,
2013-06-02 03:53:00,54.0,10.0,-100.00,ESE,116,7.0,13.0,17,-99.99,,,0.00,1.000000,,2013-06-02 09:53:00,
2013-06-02 04:02:00,54.0,10.0,-100.00,ESE,116,7.0,13.0,17,-99.99,,,0.00,1.000000,,2013-06-02 10:02:00,
2013-06-02 04:33:00,57.0,22.0,-100.00,SE,127,12.0,17.0,25,-99.99,,,0.00,1.000000,,2013-06-02 10:33:00,
2013-06-02 05:32:00,58.0,23.0,-100.00,ESE,121,12.0,20.0,26,-99.99,,,0.00,1.000000,,2013-06-02 11:32:00,
2013-06-02 06:32:00,58.0,23.0,-100.00,ENE,74,13.0,19.0,26,-99.99,,,0.00,6.000000,,2013-06-02 12:32:00,
2013-06-02 07:42:00,62.0,25.0,-100.00,ESE,109,13.0,22.0,24,-99.99,,,0.00,95.000000,,2013-06-02 13:42:00,
2013-06-02 07:52:00,62.0,25.0,-100.00,ESE,109,13.0,22.0,24,-99.99,,,0.00,95.000000,,2013-06-02 13:52:00,
2013-06-02 08:32:00,66.0,26.0,-100.00,ESE,122,14.0,21.0,22,-99.99,,,0.00,309.000000,,2013-06-02 14:32:00,
2013-06-02 09:33:00,68.0,27.0,-100.00,ESE,117,14.0,23.0,21,-99.99,,,0.00,466.000000,,2013-06-02 15:33:00,
2013-06-02 09:53:00,68.0,27.0,-100.00,ESE,117,14.0,23.0,21,-99.99,,,0.00,466.000000,,2013-06-02 15:53:00,
2013-06-02 10:03:00,68.0,27.0,-100.00,ESE,117,14.0,23.0,21,-99.99,,,0.00,466.000000,,2013-06-02 16:03:00,
2013-06-02 10:13:00,68.0,27.0,-100.00,ESE,117,14.0,23.0,21,-99.99,,,0.00,466.000000,,2013-06-02 16:13:00,
2013-06-02 10:33:00,72.0,25.0,-100.00,SE,137,11.0,20.0,17,0.00,,,0.00,617.000000,,2013-06-02 16:33:00,
2013-06-02 10:42:00,72.0,25.0,-100.00,SE,137,11.0,20.0,17,0.00,,,0.00,617.000000,,2013-06-02 16:42:00,
2013-06-02 10:52:00,72.0,25.0,-100.00,SE,137,11.0,20.0,17,0.00,,,0.00,617.000000,,2013-06-02 16:52:00,
2013-06-02 11:02:00,72.0,25.0,-100.00,SE,137,11.0,20.0,17,0.00,,,0.00,617.000000,,2013-06-02 17:02:00,
2013-06-02 11:12:00,72.0,25.0,-100.00,SE,137,11.0,20.0,17,0.00,,,0.00,617.000000,,2013-06-02 17:12:00,
2013-06-02 11:32:00,76.0,23.0,-100.00,SSE,160,11.0,18.0,14,0.00,,,0.00,738.000000,,2013-06-02 17:32:00,
2013-06-02 11:42:00,76.0,23.0,-100.00,SSE,160,11.0,18.0,14,0.00,,,0.00,738.000000,,2013-06-02 17:42:00,
2013-06-02 11:52:00,76.0,23.0,-100.00,SSE,160,11.0,18.0,14,0.00,,,0.00,738.000000,,2013-06-02 17:52:00,
2013-06-02 12:01:00,76.0,23.0,-100.00,SSE,160,11.0,18.0,14,0.00,,,0.00,738.000000,,2013-06-02 18:01:00,
2013-06-02 12:11:00,76.0,23.0,-100.00,SSE,160,11.0,18.0,14,0.00,,,0.00,738.000000,,2013-06-02 18:11:00,
2013-06-02 12:32:00,78.0,19.0,-100.00,SSE,161,6.0,18.0,11,0.00,,,-99.99,917.000000,,2013-06-02 18:32:00,
2013-06-02 12:42:00,78.0,19.0,-100.00,SSE,161,6.0,18.0,11,0.00,,,-99.99,917.000000,,2013-06-02 18:42:00,
2013-06-02 12:52:00,78.0,19.0,-100.00,SSE,161,6.0,18.0,11,0.00,,,-99.99,917.000000,,2013-06-02 18:52:00,
2013-06-02 13:01:00,78.0,19.0,-100.00,SSE,161,6.0,18.0,11,0.00,,,-99.99,917.000000,,2013-06-02 19:01:00,
2013-06-02 13:11:00,78.0,19.0,-100.00,SSE,161,6.0,18.0,11,0.00,,,-99.99,917.000000,,2013-06-02 19:11:00,
2013-06-02 13:32:00,82.0,15.0,-100.00,SW,215,6.0,17.0,8,0.00,,,0.00,921.000000,,2013-06-02 19:32:00,
2013-06-02 13:42:00,82.0,15.0,-100.00,SW,215,6.0,17.0,8,0.00,,,0.00,921.000000,,2013-06-02 19:42:00,
2013-06-02 13:52:00,82.0,15.0,-100.00,SW,215,6.0,17.0,8,0.00,,,0.00,921.000000,,2013-06-02 19:52:00,
2013-06-02 14:02:00,82.0,15.0,-100.00,SW,215,6.0,17.0,8,0.00,,,0.00,921.000000,,2013-06-02 20:02:00,
2013-06-02 14:11:00,82.0,15.0,-100.00,SW,215,6.0,17.0,8,0.00,,,0.00,921.000000,,2013-06-02 20:11:00,
2013-06-02 14:32:00,85.0,17.0,-100.00,SE,139,9.0,17.0,8,0.00,,,0.00,1197.000000,,2013-06-02 20:32:00,
2013-06-02 14:42:00,85.0,17.0,-100.00,SE,139,9.0,17.0,8,0.00,,,0.00,1197.000000,,2013-06-02 20:42:00,
2013-06-02 14:52:00,85.0,17.0,-100.00,SE,139,9.0,17.0,8,0.00,,,0.00,1197.000000,,2013-06-02 20:52:00,
2013-06-02 15:01:00,85.0,17.0,-100.00,SE,139,9.0,17.0,8,0.00,,,0.00,1197.000000,,2013-06-02 21:01:00,
2013-06-02 15:11:00,85.0,17.0,-100.00,SE,139,9.0,17.0,8,0.00,,,0.00,1197.000000,,2013-06-02 21:11:00,
2013-06-02 15:33:00,85.0,17.0,-100.00,WSW,245,8.0,19.0,8,0.00,,,0.00,818.000000,,2013-06-02 21:33:00,
2013-06-02 15:42:00,85.0,17.0,-100.00,WSW,245,8.0,19.0,8,0.00,,,0.00,818.000000,,2013-06-02 21:42:00,
2013-06-02 15:53:00,85.0,17.0,-100.00,WSW,245,8.0,19.0,8,0.00,,,0.00,818.000000,,2013-06-02 21:53:00,
2013-06-02 16:03:00,85.0,17.0,-100.00,WSW,245,8.0,19.0,8,0.00,,,0.00,818.000000,,2013-06-02 22:03:00,
2013-06-02 16:12:00,85.0,17.0,-100.00,WSW,245,8.0,19.0,8,0.00,,,0.00,818.000000,,2013-06-02 22:12:00,
2013-06-02 16:33:00,82.0,18.0,-100.00,WSW,247,22.0,29.0,9,0.00,,,0.00,431.000000,,2013-06-02 22:33:00,
2013-06-02 16:42:00,82.0,18.0,-100.00,WSW,247,22.0,29.0,9,0.00,,,0.00,431.000000,,2013-06-02 22:42:00,
2013-06-02 16:52:00,82.0,18.0,-100.00,WSW,247,22.0,29.0,9,0.00,,,0.00,431.000000,,2013-06-02 22:52:00,
2013-06-02 17:02:00,82.0,18.0,-100.00,WSW,247,22.0,29.0,9,0.00,,,0.00,431.000000,,2013-06-02 23:02:00,
2013-06-02 17:12:00,82.0,18.0,-100.00,WSW,247,22.0,29.0,9,0.00,,,0.00,431.000000,,2013-06-02 23:12:00,
2013-06-02 17:32:00,84.0,16.0,-100.00,SSW,204,7.0,30.0,8,0.00,,,0.00,522.000000,,2013-06-02 23:32:00,
2013-06-02 17:42:00,84.0,16.0,-100.00,SSW,204,7.0,30.0,8,0.00,,,0.00,522.000000,,2013-06-02 23:42:00,
2013-06-02 17:52:00,84.0,16.0,-100.00,SSW,204,7.0,30.0,8,0.00,,,0.00,522.000000,,2013-06-02 23:52:00,
2013-06-02 18:01:00,84.0,16.0,-100.00,SSW,204,7.0,30.0,8,0.00,,,0.00,522.000000,,2013-06-03 00:01:00,
2013-06-02 18:11:00,84.0,16.0,-100.00,SSW,204,7.0,30.0,8,0.00,,,0.00,522.000000,,2013-06-03 00:11:00,
2013-06-02 19:32:00,77.0,22.0,-100.00,SE,145,8.0,14.0,13,-99.99,,,0.00,58.000000,,2013-06-03 01:32:00,
2013-06-02 19:42:00,77.0,22.0,-100.00,SE,145,8.0,14.0,13,-99.99,,,0.00,58.000000,,2013-06-03 01:42:00,
2013-06-02 19:52:00,77.0,22.0,-100.00,SE,145,8.0,14.0,13,-99.99,,,0.00,58.000000,,2013-06-03 01:52:00,
2013-06-02 20:02:00,77.0,22.0,-100.00,SE,145,8.0,14.0,13,-99.99,,,0.00,58.000000,,2013-06-03 02:02:00,
2013-06-02 20:12:00,77.0,22.0,-100.00,SE,145,8.0,14.0,13,-99.99,,,0.00,58.000000,,2013-06-03 02:12:00,
2013-06-02 20:32:00,75.0,19.0,-100.00,SSE,151,6.0,29.0,12,0.00,,,0.00,19.000000,,2013-06-03 02:32:00,
2013-06-02 20:42:00,75.0,19.0,-100.00,SSE,151,6.0,29.0,12,0.00,,,0.00,19.000000,,2013-06-03 02:42:00,
2013-06-02 20:52:00,75.0,19.0,-100.00,SSE,151,6.0,29.0,12,0.00,,,0.00,19.000000,,2013-06-03 02:52:00,
2013-06-02 21:02:00,75.0,19.0,-100.00,SSE,151,6.0,29.0,12,0.00,,,0.00,19.000000,,2013-06-03 03:02:00,
2013-06-02 21:33:00,70.0,20.0,-100.00,SE,131,5.0,10.0,15,0.00,,,0.00,2.000000,,2013-06-03 03:33:00,
2013-06-02 21:43:00,70.0,20.0,-100.00,SE,131,5.0,10.0,15,0.00,,,0.00,2.000000,,2013-06-03 03:43:00,
2013-06-02 21:53:00,70.0,20.0,-100.00,SE,131,5.0,10.0,15,0.00,,,0.00,2.000000,,2013-06-03 03:53:00,
2013-06-02 22:02:00,70.0,20.0,-100.00,SE,131,5.0,10.0,15,0.00,,,0.00,2.000000,,2013-06-03 04:02:00,
2013-06-02 22:12:00,70.0,20.0,-100.00,SE,131,5.0,10.0,15,0.00,,,0.00,2.000000,,2013-06-03 04:12:00,
2013-06-02 22:33:00,67.0,21.0,-100.00,ESE,107,5.0,9.0,17,0.00,,,0.00,1.000000,,2013-06-03 04:33:00,
2013-06-02 22:42:00,67.0,21.0,-100.00,ESE,107,5.0,9.0,17,0.00,,,0.00,1.000000,,2013-06-03 04:42:00,
2013-06-02 22:53:00,67.0,21.0,-100.00,ESE,107,5.0,9.0,17,0.00,,,0.00,1.000000,,2013-06-03 04:53:00,
2013-06-02 23:02:00,67.0,21.0,-100.00,ESE,107,5.0,9.0,17,0.00,,,0.00,1.000000,,2013-06-03 05:02:00,
2013-06-02 23:12:00,67.0,21.0,-100.00,ESE,107,5.0,9.0,17,0.00,,,0.00,1.000000,,2013-06-03 05:12:00,
2013-06-02 23:32:00,63.0,24.0,-100.00,ESE,116,5.0,7.0,22,0.00,,,0.00,1.000000,,2013-06-03 05:32:00,
2013-06-02 23:43:00,63.0,24.0,-100.00,ESE,116,5.0,7.0,22,0.00,,,0.00,1.000000,,2013-06-03 05:43:00,
2013-06-02 23:52:00,63.0,24.0,-100.00,ESE,116,5.0,7.0,22,0.00,,,0.00,1.000000,,2013-06-03 05:52:00,